Nashville, TN

7:11 PM CDT on October 20, 2017 (GMT -0500)
Nashville International

Weather History for KBNA - November, 2012

Change the Weather History Date:

Friday, November 23, 2012

  Actual Average Record
Temperature  
Mean Temperature 48 °F 47 °F  
Max Temperature 59 °F 57 °F 75 °F (1931)
Min Temperature 36 °F 37 °F 16 °F (1970)
Degree Days  
Heating Degree Days 17    
Month to date heating degree days 357  
Since 1 July heating degree days 597  
Cooling Degree Days 0    
Month to date cooling degree days 0  
Year to date cooling degree days 1975  
Moisture  
Dew Point 36 °F    
Average Humidity 60    
Maximum Humidity 89    
Minimum Humidity 31    
Precipitation  
Precipitation 0.12 in 0.16 in 2.17 in (1975)
Month to date precipitation 1.10 3.16  
Year to date precipitation 40.83 41.86  
Snow  
Snow 0.00 in - 2.00 in (1950)
Month to date snowfall 0.0  
Since 1 July snowfall 0.0  
Since 1 September snowfall 0.0  
Snow Depth 0.00 in    
Sea Level Pressure  
Sea Level Pressure 30.17 in    
Wind  
Wind Speed 8 mph (NW)    
Max Wind Speed 18 mph    
Max Gust Speed 26 mph    
Visibility 9 miles    
Events Rain    
T = Trace of Precipitation, MM = Missing Value Source: NWS Daily Summary

Daily Weather History Graph

Daily Weather History Graph

Search for Another Location

Airport or City:

Trip Planner

Search our weather history database for the weather conditions in past years. The results will help you decide how hot, cold, wet, or windy it might be!

Date:

Astronomy

Nov. 23, 2012 Rise Set
Actual Time 6:31 AM CST 4:34 PM CST
Civil Twilight 6:04 AM CST 5:02 PM CST
Nautical Twilight 5:32 AM CST 5:33 PM CST
Astronomical Twilight 5:01 AM CST 6:04 PM CST
Moon 1:42 PM CST (11/23) 1:57 AM CST (11/23)
Length of Visible Light 10h 58m
Length of Day
10h 02m
Waxing Gibbous, 80% of the Moon is Illuminated
Nov 23
Waxing Gibbous
Nov 28
Full
Dec 6
Last Quarter
Dec 13
New
Dec 19
First Quarter

Hourly Weather History & Observations

Time (CST) Temp. Windchill Dew Point Humidity Pressure Visibility Wind Dir Wind Speed Gust Speed Precip Events Conditions
12:53 AM 51.1 °F - 39.0 °F 63% 30.15 in 10.0 mi SSW 4.6 mph - N/A   Mostly Cloudy
1:53 AM 46.9 °F - 39.0 °F 74% 30.13 in 10.0 mi South 6.9 mph - N/A   Mostly Cloudy
2:53 AM 46.9 °F - 39.9 °F 77% 30.12 in 10.0 mi South 5.8 mph - N/A   Mostly Cloudy
3:53 AM 48.0 °F - 39.9 °F 74% 30.11 in 10.0 mi South 4.6 mph - N/A   Mostly Cloudy
4:53 AM 48.9 °F - 41.0 °F 74% 30.11 in 10.0 mi SSW 5.8 mph - N/A   Mostly Cloudy
5:53 AM 55.9 °F - 42.1 °F 60% 30.11 in 10.0 mi WSW 5.8 mph - 0.00 in Rain Light Rain
6:53 AM 52.0 °F - 48.9 °F 89% 30.14 in 3.0 mi WSW 5.8 mph - 0.09 in Rain Rain
7:18 AM 51.8 °F - 48.2 °F 88% 30.13 in 4.0 mi West 6.9 mph - 0.03 in Rain Light Rain
7:53 AM 52.0 °F - 50.0 °F 93% 30.14 in 8.0 mi West 4.6 mph - 0.03 in   Overcast
8:27 AM 53.6 °F - 48.2 °F 82% 30.14 in 9.0 mi WNW 5.8 mph - N/A   Overcast
8:53 AM 53.1 °F - 48.9 °F 86% 30.15 in 7.0 mi WNW 6.9 mph - N/A   Overcast
9:16 AM 53.6 °F - 48.2 °F 82% 30.16 in 10.0 mi NW 8.1 mph - N/A   Overcast
9:53 AM 52.0 °F - 37.9 °F 59% 30.17 in 10.0 mi NNW 10.4 mph 21.9 mph N/A   Overcast
10:13 AM 51.8 °F - 35.6 °F 54% 30.17 in 10.0 mi North 11.5 mph - N/A   Mostly Cloudy
10:53 AM 53.1 °F - 36.0 °F 52% 30.18 in 10.0 mi North 6.9 mph - N/A   Mostly Cloudy
11:53 AM 57.0 °F - 33.1 °F 40% 30.15 in 10.0 mi NW 12.7 mph - N/A   Scattered Clouds
12:53 PM 59.0 °F - 28.9 °F 32% 30.13 in 10.0 mi NW 11.5 mph 18.4 mph N/A   Partly Cloudy
1:53 PM 59.0 °F - 28.9 °F 32% 30.13 in 10.0 mi NNW 8.1 mph - N/A   Partly Cloudy
2:53 PM 59.0 °F - 30.0 °F 33% 30.14 in 10.0 mi NNW 9.2 mph - N/A   Partly Cloudy
3:53 PM 55.0 °F - 30.0 °F 38% 30.16 in 10.0 mi NNW 9.2 mph - N/A   Clear
4:53 PM 51.1 °F - 28.9 °F 43% 30.17 in 10.0 mi NNW 10.4 mph - N/A   Clear
5:53 PM 50.0 °F - 30.9 °F 48% 30.19 in 10.0 mi NNW 9.2 mph - N/A   Clear
6:53 PM 46.9 °F - 33.1 °F 59% 30.21 in 10.0 mi NNW 11.5 mph - N/A   Clear
7:53 PM 44.1 °F 38.6 °F 30.0 °F 58% 30.23 in 10.0 mi NNW 10.4 mph 18.4 mph N/A   Clear
8:53 PM 42.1 °F 35.7 °F 26.1 °F 53% 30.25 in 10.0 mi NNW 11.5 mph - N/A   Clear
9:53 PM 39.9 °F 33.4 °F 25.0 °F 55% 30.25 in 10.0 mi NNW 10.4 mph - N/A   Clear
10:53 PM 37.9 °F 31.5 °F 23.0 °F 55% 30.26 in 10.0 mi NNW 9.2 mph - N/A   Clear
11:53 PM 36.0 °F 29.6 °F 21.9 °F 57% 30.27 in 10.0 mi NNW 8.1 mph - N/A   Clear